EKRAN 2 DEB, 12996

Orbit data source: Space-Track

EKRAN 2 DEB, 12996 is space debris in GEO originally from a launch on Tue, 20 Sep 1977 UTC launched from the Tyuratam Missile And Space Complex (TTMTR). Debris objects in space refer to the collection of defunct objects orbiting the Earth. Examples of debris include non-operational satellites, rocket bodies, and fragments generated from explosions, collisions, or faulty payload assembly.

Loading next visibility...
Identifier
12996, 1977-092J
Orbit
GEO
Country
Flag of CISCIS
Related business
Manufacturer
Unknown
Mission
Spacecraft
Bus & Motor
Unknown
Mass
Unknown
Launch date (UTC)
1977-09-20 (49 years ago)
Launch vehicle
Unknown
Launch site
Tyuratam Missile And Space Complex (TTMTR)
Object type
Payload
Rocket body
Debris
Shape & HBR
Unknown shape, 1.1 m
Radar Cross Section
Large (>1 m²)

Expand to show TLE details & history
Last TLE update: 2 days ago

TLE from 2 days ago
0 EKRAN 2 DEB
1 12996U 77092J   26171.23593676 -.00000255  00000-0  00000+0 0  9992
2 12996   4.2974 274.8228 0016031 277.9072  92.4090  1.00036823 84541
Epoch: 2026-06-20T05:39Z
TLE epoch observation values (Epoch: 2026-06-20T05:39:44.936Z)
Latitude
0.76557°
Longitude
-68.09307°
Altitude
35,854.821 km
Speed
3.072 km/s
True Right ascension
19h 01m 11s
True Declination
0° 45' 53"
Sunlit
Object was in daylight at epoch
Visualization orbit readout
Latitude
Unknown
Longitude
Unknown
Altitude
Unknown
Speed
Unknown
Apparent Right ascension
Unknown
Apparent Declination
Unknown
Sunlit
N/A
Visualization observer readout
Local Sidereal Time
23:27:01
Azimuth
Unknown
Elevation
Unknown
Doppler factor
Unknown
Orbital elements
Apogee altitude
35,921.354 km
Perigee altitude
35,785.95 km
Semi-major axis
42,231.789 km
Eccentricity
0.0016
Inclination
4.2974°
RAAN
274.8228°
Arg. of periapsis
277.9072°
True anomaly
92.59252°
Mean anomaly
92.409°
Eccentric anomaly
92.50076°
Mean motion
0.25008 °/min
Orbital period
1,439.52 mins
BSTAR
0
Loading maneuver chart data...
Computing Atmospheric mass density...
Loading historical data...
Loading historical data...
Loading historical data...
Loading historical data...
Loading historical data...
Loading historical data...
Loading historical data...

Documentation

Showing up to 5 results
|